Location: Ertinghausen
(51.6624°N, 9.7874°E)
Time: 16:15:48
(UTC+00:00)

Cosmos 2228 Rocket - Pass Details

Date: 23 May 2024
Orbit: 616 x 648 km, 82.5° (Epoch: 24 June)

Event Time Altitude Azimuth Distance (km) Brightness Sun altitude
Exits shadow 00:05:27 33° 190° (S) 1,063 3.7 -16.9°
Maximum altitude 00:07:26 89° 276° (W) 641 3.0 -16.9°
Drops below altitude 10° 00:11:58 10° 10° (N) 2,039 7.1 -16.7°
Sets 00:14:14 0° 11° (N) 2,958 8.4 -16.6°
